Weather History for Kalaeloa, HI

Change the Weather History Date:

Friday, November 25, 2011

  Actual Average (PHNL) Record (PHNL)
Temperature  
Mean Temperature 76 °F 77 °F  
Max Temperature 84 °F 83 °F 87 °F (1968)
Min Temperature 69 °F 71 °F 57 °F (1990)
Degree Days  
Heating Degree Days 0 0  
Month to date heating degree days 0  
Since 1 July heating degree days 0  
Cooling Degree Days 12 12  
Month to date cooling degree days 323  
Year to date cooling degree days 4269  
Growing Degree Days 26 (Base 50)    
Moisture  
Dew Point 62 °F    
Average Humidity 66    
Maximum Humidity 78    
Minimum Humidity 49    
Precipitation  
Precipitation 0.00 in 0.07 in 5.01 in (1975)
Month to date precipitation 2.02  
Year to date precipitation 13.46  
Snow  
Snow 0.00 in - - ()
Month to date snowfall  
Since 1 July snowfall  
Since 1 September snowfall  
Snow Depth -    
Sea Level Pressure  
Sea Level Pressure 30.12 in    
Wind  
Wind Speed 3 mph (NE)    
Max Wind Speed 8 mph    
Max Gust Speed -    
Visibility 10 miles    
Events      
T = Trace of Precipitation, MM = Missing Value Source: NWS Daily Summary

Daily Weather History Graph

Daily Weather History Graph

Search for Another Location

Airport:

Trip Planner

Search our weather history database for the weather conditions in past years. The results will help you decide how hot, cold, wet, or windy it might be!

Date:

Astronomy

Nov. 25, 2011 Rise Set
Actual Time 6:49 AM HST 5:49 PM HST
Civil Twilight 6:25 AM HST 6:12 PM HST
Nautical Twilight 5:58 AM HST 6:40 PM HST
Astronomical Twilight 5:31 AM HST 7:07 PM HST
Moon 7:23 AM HST (11/25) 6:35 PM HST (11/25)
Length of Visible Light 11h 47m
Length of Day
10h 59m
New Moon, 1% of the Moon is Illuminated
Nov 25
New Moon
Dec 1
First Quarter
Dec 10
Full
Dec 17
Last Quarter
Dec 24
New

Hourly Weather History & Observations

Time (HST) Temp. Heat Index Dew Point Humidity Pressure Visibility Wind Dir Wind Speed Gust Speed Precip Events Conditions
12:53 AM 70.0 °F - 63.0 °F 78% 30.12 in 10.0 mi Calm Calm - N/A   Scattered Clouds
1:53 AM 73.0 °F - 64.0 °F 73% 30.12 in 10.0 mi Variable 4.6 mph - N/A   Overcast
2:53 AM 72.0 °F - 63.0 °F 73% 30.09 in 10.0 mi Calm Calm - N/A   Mostly Cloudy
3:53 AM 72.0 °F - 63.0 °F 73% 30.09 in 10.0 mi Variable 3.5 mph - N/A   Overcast
4:53 AM 73.0 °F - 63.0 °F 71% 30.09 in 10.0 mi Calm Calm - N/A   Overcast
5:53 AM 72.0 °F - 63.0 °F 73% 30.09 in 10.0 mi Calm Calm - N/A   Partly Cloudy
6:53 AM 69.1 °F - 62.1 °F 78% 30.12 in 10.0 mi Calm Calm - N/A   Clear
7:53 AM 72.0 °F - 63.0 °F 73% 30.14 in 10.0 mi Calm Calm - N/A   Clear
8:53 AM 77.0 °F - 64.0 °F 64% 30.14 in 10.0 mi East 5.8 mph - N/A   Clear
9:53 AM 78.1 °F - 64.0 °F 62% 30.16 in 10.0 mi Variable 5.8 mph - N/A   Partly Cloudy
10:53 AM 81.0 °F 81.9 °F 62.1 °F 52% 30.14 in 10.0 mi Variable 5.8 mph - N/A   Scattered Clouds
11:53 AM 84.0 °F 84.9 °F 63.0 °F 49% 30.12 in 10.0 mi Calm Calm - N/A   Mostly Cloudy
12:53 PM 82.0 °F 82.7 °F 61.0 °F 49% 30.09 in 10.0 mi NE 8.1 mph - N/A   Mostly Cloudy
1:53 PM 81.0 °F 81.7 °F 61.0 °F 50% 30.08 in 10.0 mi Variable 6.9 mph - N/A   Scattered Clouds
2:53 PM 81.0 °F 81.7 °F 61.0 °F 50% 30.08 in 10.0 mi Variable 3.5 mph - N/A   Scattered Clouds
3:53 PM 79.0 °F - 61.0 °F 54% 30.08 in 10.0 mi Variable 5.8 mph - N/A   Mostly Cloudy
4:53 PM 77.0 °F - 61.0 °F 58% 30.09 in 10.0 mi NE 6.9 mph - 0.00 in   Clear
5:53 PM 75.0 °F - 61.0 °F 62% 30.11 in 10.0 mi NE 4.6 mph - N/A   Clear
6:53 PM 73.9 °F - 61.0 °F 64% 30.13 in 10.0 mi Variable 3.5 mph - N/A   Clear
7:53 PM 73.9 °F - 62.1 °F 66% 30.15 in 10.0 mi North 3.5 mph - N/A   Mostly Cloudy
8:49 PM 71.6 °F - 62.6 °F 73% 30.14 in 10.0 mi Calm Calm - N/A   Partly Cloudy
8:53 PM 72.0 °F - 63.0 °F 73% 30.16 in 10.0 mi Calm Calm - N/A   Partly Cloudy
9:53 PM 73.0 °F - 64.0 °F 73% 30.17 in 10.0 mi Variable 3.5 mph - N/A   Mostly Cloudy
10:53 PM 72.0 °F - 63.0 °F 73% 30.17 in 10.0 mi Variable 3.5 mph - N/A   Clear
11:53 PM 71.1 °F - 63.0 °F 75% 30.17 in 10.0 mi Variable 3.5 mph - N/A   Clear